Temperature
18 18 17 17 17 17 17 17 17 17 17 17 17 16 16 16 16 16 16 16 16 16 16 16 16 16 16 16 16 16 16 16 16 15 15 15 15 15 15 15 15 15 15
18 17 17 17 17 17 17 17 17 17 16 16 16 16 16 16 16 16 16 16 16 16 16 16 16 16 15 15 15 15 15 15 15 15 15 15 14 14 14 14 14 14 14
18 17 17 17 17 17 17 17 17 16 16 16 16 16 16 16 16 16 16 16 16 15 15 15 15 15 15 15 15 15 15 15 15 14 14 14 14 14 13 13 13 13 13
18 17 17 17 17 17 17 17 16 16 16 16 16 16 16 16 16 16 16 15 15 15 15 15 15 15 15 15 14 14 14 14 14 14 14 13 13 13 13 13 12 12 12
18 17 17 17 17 17 16 16 16 16 16 16 16 16 15 15 15 15 15 15 15 15 15 15 14 14 14 14 14 14 13 13 13 13 13 13 12 12 12 12 11 11 11
18 17 17 17 16 16 16 16 16 16 16 15 15 15 15 15 15 15 15 15 15 14 14 14 14 14 14 13 13 13 13 13 12 12 12 12 12 11 11 11 11 10 10
17 17 17 16 16 16 16 16 15 15 15 15 15 15 15 15 15 15 14 14 14 14 14 13 13 13 13 13 12 12 12 12 11 11 11 11 11 10 10 10 10 10 9
17 17 16 16 16 15 15 15 15 15 15 15 15 14 14 14 14 14 14 14 13 13 13 13 13 12 12 12 12 11 11 11 11 10 10 10 10 10 9 9 9 9 8
17 16 16 16 15 15 15 15 15 15 15 14 14 14 14 14 13 13 13 13 13 12 12 12 12 11 11 11 11 11 10 10 10 9 9 9 9 9 8 8 8 8 8
16 16 16 15 15 15 15 14 14 14 14 14 14 13 13 13 13 13 12 12 12 12 11 11 11 10 10 10 10 10 10 9 9 9 8 8 8 8 8 8 7 7 7
16 15 15 15 14 14 14 14 14 14 13 13 13 13 12 12 12 12 11 12 11 11 11 10 10 9 9 9 9 9 9 8 8 8 8 8 7 7 7 7 7 6 6
15 15 15 14 14 14 14 13 13 13 13 13 12 12 11 11 11 11 11 11 10 10 10 9 9 9 9 9 8 8 8 8 7 7 7 7 6 6 6 6 6 6 5
15 15 14 14 14 13 13 13 13 12 12 12 11 11 11 10 10 10 10 10 10 9 9 9 8 8 8 8 7 7 7 7 7 7 6 6 6 5 5 5 5 5 5
14 14 14 13 13 13 12 12 12 12 11 11 11 10 10 10 10 10 9 9 9 8 8 8 8 7 7 7 7 6 6 6 6 6 5 5 5 5 5 4 4 4 4
14 13 13 13 12 12 11 11 11 11 11 10 10 10 10 9 9 9 9 8 8 8 8 7 7 7 7 6 6 6 6 5 5 5 5 5 4 4 4 4 4 4 4
13 13 12 12 12 11 11 10 10 10 9 9 9 9 9 9 8 8 8 7 7 7 7 7 7 6 6 6 6 5 5 5 5 4 4 4 4 4 4 4 3 3 3
13 12 12 12 11 10 10 10 9 9 9 8 8 8 8 8 8 7 7 7 7 7 7 6 6 6 6 5 5 5 5 4 4 4 4 4 4 3 3 3 3 3 3
12 12 11 11 10 10 10 9 9 9 8 8 8 8 7 7 7 7 7 7 6 6 6 6 6 6 5 5 5 5 4 4 4 4 4 3 3 3 3 3 3 3 3
11 11 11 10 10 10 9 9 9 8 8 8 7 7 7 7 7 6 6 6 6 6 6 6 5 5 5 5 4 4 4 4 4 4 3 3 3 3 3 3 3 3 3
11 10 10 10 9 9 9 9 8 8 8 7 7 7 7 7 6 6 6 6 6 6 6 5 5 5 5 4 4 4 4 4 4 3 3 3 3 3 3 3 3 3 3
10 10 9 9 9 9 8 8 8 8 7 7 7 7 7 7 6 6 6 6 6 6 5 5 5 5 4 4 4 4 4 4 4 3 3 3 3 3 3 3 3 2 2
9 9 9 9 8 8 8 8 8 7 7 7 7 7 6 6 6 6 6 6 5 5 5 5 5 5 4 4 4 4 4 4 4 3 3 3 3 3 3 2 2 2 2
9 8 8 8 8 8 8 7 7 7 7 7 7 7 6 6 6 6 6 5 5 5 5 5 5 4 4 4 4 4 4 4 4 3 3 3 3 3 2 2 2 2 2
8 8 8 8 8 8 8 7 7 7 7 7 7 6 6 6 6 6 6 5 5 5 5 5 5 4 4 4 4 4 4 4 3 3 3 3 3 2 2 2 2 2 2
8 8 8 8 8 8 8 7 7 7 7 7 7 7 6 6 6 6 6 5 5 5 5 5 5 5 4 4 4 4 4 4 3 3 3 3 3 2 2 2 2 2 2
8 8 8 8 8 8 8 7 7 7 7 7 7 7 6 6 6 6 6 6 5 5 5 5 5 5 4 4 4 4 4 4 3 3 3 3 3 2 2 2 2 2 2
Wind_Speed
5 5 5 4 4 5 4 4 4 3 4 4 4 4 4 4 4 4 4 4 4 4 3 4 4 3 2 2 2 2 3 3 3 1 1 2 3 4 6 7 8 8 9
4 4 5 4 5 4 4 3 4 4 4 4 4 4 4 4 4 5 4 4 4 4 4 4 3 3 2 2 2 2 3 3 4 3 1 2 3 3 5 6 7 8 10
4 4 4 5 5 4 4 3 3 4 3 4 4 4 3 3 3 3 4 4 3 3 3 4 3 3 3 2 2 2 2 2 3 3 2 2 2 3 4 5 7 7 9
5 5 5 5 4 4 4 4 3 4 4 4 3 3 3 3 3 3 4 4 4 3 3 3 3 3 3 3 3 3 4 4 4 4 3 2 2 2 3 3 5 5 6
5 5 5 5 5 5 4 4 4 4 4 4 4 3 3 2 3 4 5 5 5 5 4 3 3 5 5 4 4 4 5 5 5 5 4 3 2 2 2 2 4 4 6
6 5 5 6 5 5 5 5 5 5 5 5 4 4 3 2 4 6 6 6 5 5 5 4 5 6 8 10 10 8 7 6 5 4 3 3 2 2 2 3 3 3 2
6 6 6 6 6 5 5 6 6 5 5 5 5 4 4 4 6 8 9 6 6 5 5 5 5 6 8 8 11 13 11 10 7 5 5 3 2 1 2 3 2 3 2
7 6 6 6 6 6 6 6 6 5 6 5 5 5 5 6 8 10 11 8 7 6 5 5 6 6 6 8 10 10 9 9 8 7 6 4 3 3 2 3 3 4 4
6 6 6 7 7 7 6 6 5 6 6 5 5 6 6 7 9 11 10 7 7 7 6 6 7 7 8 10 10 10 9 8 13 15 14 12 12 10 7 5 4 4 3
6 7 7 7 7 7 6 6 5 6 7 7 7 6 7 6 8 9 9 7 7 7 6 7 9 8 8 9 8 9 8 6 6 8 10 12 12 12 11 6 3 3 2
7 7 7 7 7 7 7 6 7 7 8 7 7 7 7 7 8 9 9 6 7 7 6 5 6 10 11 11 9 7 8 7 7 8 7 7 8 8 8 8 6 3 3
8 8 8 7 7 7 8 7 7 7 8 7 7 7 6 6 7 9 10 10 8 8 7 6 7 12 12 12 9 10 11 9 7 7 7 6 5 5 5 7 8 7 6
9 8 8 8 7 7 8 8 6 6 6 5 5 5 5 5 6 10 11 12 11 8 8 10 11 13 12 10 12 12 9 7 6 6 6 4 3 3 4 5 7 8 8
9 8 8 8 8 7 6 5 5 5 5 5 6 6 5 5 4 5 6 8 10 9 8 11 13 13 11 10 9 8 7 6 6 6 5 4 3 4 5 4 4 4 4
9 8 8 8 8 8 7 6 5 4 4 6 6 6 6 5 4 6 7 6 6 7 7 6 6 6 7 6 6 6 6 5 5 4 4 4 4 4 4 3 3 3 3
8 7 6 7 7 7 8 8 13 10 12 11 9 8 6 8 10 11 11 11 11 11 8 6 6 6 6 5 6 5 5 4 4 4 4 4 3 3 3 3 3 3 2
8 8 6 7 7 7 6 7 8 9 13 13 11 11 11 11 12 12 12 12 11 9 7 6 5 5 5 4 4 4 3 3 2 3 3 3 2 3 3 2 2 2 2
8 8 8 7 7 7 7 7 7 7 6 5 7 10 11 11 11 11 12 10 7 5 5 5 4 4 4 4 3 3 3 3 2 2 2 2 2 2 2 2 2 2 2
7 7 7 7 7 7 7 7 7 7 6 5 5 5 8 9 9 8 7 5 5 4 4 4 4 4 3 3 3 2 2 2 2 2 1 1 1 1 1 1 1 1 2
7 11 10 8 7 7 7 7 7 7 6 6 5 4 4 4 4 3 3 4 4 4 4 4 3 3 3 3 3 3 2 2 2 1 1 0 0 0 0 1 1 1 2
7 9 11 9 7 6 6 6 6 6 6 5 4 4 5 5 4 4 3 3 4 4 4 3 3 3 3 3 3 3 3 2 1 1 1 1 1 0 1 1 1 1 2
7 7 6 7 6 6 6 6 6 6 6 5 4 4 5 4 3 3 3 2 2 3 4 4 3 3 4 4 4 4 3 3 2 2 2 1 1 1 1 1 2 2 2
7 8 7 6 6 7 6 6 5 5 5 5 4 4 4 3 3 3 3 2 3 3 4 5 4 4 4 5 6 6 5 4 4 4 3 2 2 1 1 2 2 3 3
7 7 7 6 6 5 5 5 5 5 4 4 4 4 4 4 3 3 3 3 3 4 4 5 5 6 6 5 6 6 7 7 6 5 5 3 3 2 2 2 3 4 4
6 6 6 5 5 4 4 4 4 4 4 4 4 4 4 4 4 4 3 4 4 4 5 6 6 6 7 7 7 7 8 8 7 6 5 4 4 3 3 4 4 4 4
5 5 5 4 4 4 4 4 4 4 4 4 4 5 5 4 4 4 4 4 5 5 6 6 7 8 8 8 8 9 9 9 9 8 6 5 4 4 4 4 5 5 5
Wind_Direction
176 178 177 172 167 164 170 182 184 181 178 181 180 179 178 177 176 176 184 183 188 195 191 188 203 198 193 195 184 175 177 170 186 189 55 28 43 54 60 69 74 76 74
174 166 169 162 156 157 169 175 169 171 168 169 168 169 178 177 173 177 185 183 187 196 195 183 192 181 181 183 173 179 179 174 173 178 119 42 49 56 65 66 67 76 76
162 159 157 156 156 162 167 161 155 158 155 154 158 164 169 171 172 176 175 169 173 185 185 181 180 162 167 161 152 154 153 148 144 150 139 66 60 64 71 69 66 60 70
147 149 150 154 153 150 142 135 141 144 145 144 138 143 150 151 148 146 147 140 139 138 138 148 160 163 168 157 143 137 128 120 116 121 120 88 66 61 78 81 73 56 54
139 141 146 137 127 123 118 115 114 114 121 119 116 116 120 132 141 141 138 135 128 117 103 100 103 110 117 126 132 134 133 127 120 116 111 98 84 79 85 80 97 86 56
141 138 127 120 117 114 111 104 99 93 93 96 100 105 104 111 115 124 129 125 122 120 115 99 87 86 92 93 95 96 107 124 132 126 120 117 112 102 93 106 112 105 81
139 133 128 127 124 121 118 109 104 98 93 92 92 96 94 88 98 109 114 114 108 104 102 99 96 86 88 91 84 79 74 80 100 123 120 121 122 139 127 106 87 86 96
133 129 126 125 121 116 110 106 101 97 96 92 88 88 87 83 93 102 102 96 90 83 82 92 98 89 95 101 94 83 73 64 70 81 91 85 84 86 100 115 112 95 75
132 129 127 128 126 121 115 109 102 102 96 91 88 86 86 80 85 94 97 97 91 81 76 79 90 89 93 103 102 97 86 72 70 76 78 76 73 74 90 98 94 93 72
141 133 127 125 127 125 121 113 103 101 97 92 83 79 86 85 83 91 99 105 101 92 77 70 77 90 92 100 107 109 101 86 83 76 67 62 62 62 63 68 95 98 87
128 121 119 122 123 120 114 108 106 104 98 93 88 77 75 80 82 85 94 107 112 104 93 82 78 88 88 88 94 103 113 110 95 88 78 67 61 58 54 56 62 82 88
121 118 117 117 117 116 113 108 106 109 107 102 96 84 69 69 79 86 89 96 106 106 102 96 91 89 88 87 90 97 101 98 94 88 80 71 64 56 49 53 62 67 69
122 119 115 111 109 114 118 118 112 109 113 112 109 102 90 81 81 86 91 95 97 98 100 100 95 90 87 83 82 89 92 95 96 92 86 74 59 50 57 60 57 61 62
124 120 118 114 107 101 100 107 115 120 122 121 118 114 106 96 92 94 97 97 96 97 96 91 86 81 79 76 74 73 73 83 92 93 89 76 65 62 55 50 54 49 53
123 122 119 115 113 102 88 76 92 84 123 133 133 132 130 122 108 112 114 109 112 113 107 91 84 85 83 78 75 72 72 75 77 78 85 82 73 65 52 41 47 53 53
126 124 122 120 115 114 109 85 62 72 79 88 99 111 98 107 113 106 103 105 108 113 103 101 98 97 98 97 95 84 74 74 76 84 86 85 80 73 63 50 51 52 45
129 128 124 122 121 121 119 117 103 73 69 75 86 98 105 111 110 111 109 103 101 104 99 105 106 108 106 105 102 99 92 82 83 90 89 85 83 77 71 57 48 44 29
120 124 125 124 123 122 122 121 122 121 109 79 67 85 101 108 111 113 114 103 90 85 103 114 115 118 120 118 114 108 102 95 90 92 90 86 83 81 70 49 38 29 13
120 121 120 118 117 117 117 116 116 115 115 109 97 80 88 98 96 98 104 110 122 117 115 119 127 133 134 133 128 122 117 111 105 103 94 88 92 92 71 33 18 13 5
116 122 122 120 119 119 121 121 121 122 122 124 125 127 121 106 107 103 95 113 124 130 133 137 142 145 146 149 147 143 138 134 134 131 132 125 122 125 64 349 343 340 336
119 125 122 118 120 125 127 128 130 131 133 134 135 140 140 136 138 137 134 138 147 154 155 156 157 160 164 166 166 166 168 176 186 197 204 209 211 232 273 295 309 318 324
119 122 122 121 122 123 125 128 132 135 139 137 131 123 128 127 135 139 149 160 165 170 173 172 178 189 192 190 187 187 191 199 206 209 214 218 221 240 274 303 315 318 319
117 119 118 118 121 124 123 126 131 139 145 146 146 145 147 149 151 157 170 173 170 174 181 182 188 202 210 209 206 202 205 214 218 213 210 217 226 240 263 282 293 302 309
120 124 125 126 127 132 134 137 141 148 152 155 159 164 167 170 174 182 187 187 189 193 195 198 205 212 215 218 219 220 224 227 221 217 213 217 228 246 259 273 283 291 295
119 122 127 132 137 140 144 149 154 160 166 170 174 178 182 185 191 198 202 202 202 209 214 216 219 223 224 225 227 229 230 228 226 220 214 218 231 243 258 271 279 289 294
122 127 132 137 143 151 158 165 171 177 184 188 189 191 194 198 203 208 211 210 213 219 224 227 228 228 231 234 235 234 233 232 230 226 217 222 234 245 256 265 278 282 291
Height
1524 1526 1528 1530 1532 1534 1537 1539 1541 1543 1545 1547 1548 1550 1552 1553 1554 1556 1557 1558 1558 1559 1561 1562 1563 1564 1564 1565 1566 1566 1567 1568 1568 1569 1569 1570 1570 1571 1571 1571 1571 1571 1571
1523 1524 1526 1528 1530 1532 1535 1537 1539 1541 1542 1544 1546 1547 1548 1550 1551 1552 1553 1554 1555 1556 1557 1558 1559 1560 1560 1561 1561 1562 1563 1563 1564 1565 1566 1566 1567 1567 1568 1568 1568 1568 1568
1521 1522 1524 1526 1528 1531 1533 1535 1537 1538 1540 1541 1543 1544 1545 1546 1548 1549 1550 1551 1552 1552 1553 1554 1555 1556 1556 1557 1558 1558 1559 1560 1560 1561 1562 1563 1563 1564 1564 1565 1565 1565 1565
1520 1521 1523 1525 1527 1529 1532 1533 1535 1536 1538 1539 1540 1542 1543 1544 1545 1546 1547 1548 1548 1549 1550 1551 1551 1552 1552 1553 1554 1555 1555 1556 1557 1558 1558 1560 1561 1561 1562 1562 1562 1563 1563
1519 1520 1522 1524 1526 1529 1530 1532 1533 1535 1536 1537 1539 1540 1541 1542 1543 1543 1544 1545 1546 1546 1547 1548 1548 1549 1549 1550 1551 1551 1552 1553 1554 1555 1555 1556 1558 1558 1559 1559 1559 1560 1560
1519 1520 1522 1524 1526 1528 1529 1531 1532 1533 1534 1536 1537 1538 1539 1540 1541 1542 1542 1543 1543 1544 1545 1545 1546 1547 1547 1548 1548 1549 1550 1551 1552 1553 1553 1554 1555 1556 1556 1557 1557 1558 1558
1519 1520 1522 1524 1525 1527 1528 1529 1530 1532 1533 1534 1536 1537 1538 1538 1539 1540 1540 1541 1541 1542 1543 1544 1544 1545 1546 1546 1547 1548 1549 1549 1551 1552 1552 1553 1553 1554 1554 1554 1555 1556 1556
1518 1519 1522 1524 1525 1527 1528 1529 1530 1531 1532 1534 1535 1536 1536 1537 1538 1538 1539 1540 1540 1541 1542 1543 1543 1544 1545 1545 1546 1547 1547 1548 1549 1550 1551 1551 1552 1552 1553 1553 1554 1554 1554
1517 1519 1521 1523 1524 1526 1527 1529 1530 1531 1532 1533 1534 1535 1536 1536 1537 1538 1539 1539 1539 1540 1541 1542 1543 1544 1544 1545 1546 1546 1547 1548 1549 1550 1550 1551 1551 1552 1552 1553 1553 1553 1553
1516 1518 1520 1522 1524 1525 1526 1528 1529 1530 1531 1533 1534 1535 1535 1536 1537 1537 1538 1539 1539 1540 1541 1542 1543 1544 1545 1546 1546 1547 1547 1549 1549 1550 1551 1551 1551 1551 1552 1552 1552 1553 1553
1515 1517 1519 1521 1523 1524 1526 1527 1529 1530 1531 1532 1533 1534 1535 1536 1537 1537 1538 1539 1539 1540 1541 1542 1544 1545 1546 1547 1547 1547 1548 1549 1550 1551 1551 1551 1552 1552 1552 1552 1552 1553 1553
1515 1516 1518 1520 1522 1523 1525 1526 1528 1529 1531 1532 1533 1534 1535 1536 1537 1538 1539 1540 1540 1541 1542 1543 1545 1546 1547 1547 1548 1548 1549 1550 1551 1551 1552 1552 1553 1553 1553 1553 1553 1553 1553
1514 1515 1517 1519 1521 1523 1525 1526 1527 1528 1529 1531 1532 1533 1535 1536 1537 1539 1540 1541 1541 1542 1543 1544 1546 1547 1548 1548 1549 1550 1551 1551 1552 1552 1552 1553 1554 1554 1554 1554 1554 1554 1553
1512 1514 1516 1518 1520 1522 1524 1525 1527 1528 1529 1530 1532 1533 1535 1536 1538 1539 1540 1541 1542 1543 1544 1546 1547 1548 1549 1550 1551 1552 1552 1553 1553 1553 1554 1554 1555 1555 1555 1555 1555 1555 1554
1511 1513 1515 1517 1519 1521 1523 1525 1527 1528 1530 1531 1532 1533 1535 1536 1538 1540 1541 1542 1544 1545 1546 1547 1549 1550 1551 1552 1553 1553 1554 1555 1555 1555 1555 1556 1556 1556 1556 1556 1555 1555 1554
1511 1513 1515 1517 1519 1521 1523 1524 1527 1529 1530 1532 1533 1535 1536 1538 1540 1541 1543 1544 1546 1547 1548 1549 1551 1552 1553 1553 1554 1555 1555 1556 1556 1556 1557 1557 1557 1557 1557 1556 1556 1555 1555
1510 1512 1514 1516 1519 1521 1523 1525 1527 1529 1531 1533 1535 1536 1538 1540 1541 1543 1544 1546 1548 1550 1551 1552 1553 1554 1554 1555 1556 1556 1557 1557 1557 1557 1557 1558 1558 1557 1557 1557 1557 1556 1555
1510 1513 1514 1517 1519 1521 1524 1526 1527 1529 1532 1534 1536 1538 1540 1542 1543 1545 1546 1548 1549 1551 1553 1554 1555 1555 1556 1556 1557 1557 1558 1558 1558 1558 1558 1558 1558 1558 1558 1557 1557 1556 1555
1510 1513 1515 1517 1520 1522 1525 1527 1529 1531 1534 1535 1537 1540 1542 1544 1545 1547 1549 1550 1551 1552 1554 1555 1556 1556 1557 1557 1558 1558 1558 1559 1559 1559 1559 1558 1558 1558 1558 1557 1557 1556 1555
1511 1513 1515 1518 1521 1523 1525 1528 1530 1532 1535 1537 1539 1541 1543 1545 1547 1548 1550 1551 1552 1554 1555 1556 1557 1557 1557 1558 1559 1559 1559 1559 1559 1559 1559 1558 1558 1558 1557 1557 1556 1555 1554
1512 1514 1517 1519 1522 1524 1527 1529 1532 1534 1537 1539 1541 1543 1545 1547 1548 1550 1551 1553 1554 1555 1556 1557 1557 1558 1558 1558 1559 1559 1559 1559 1559 1559 1558 1558 1558 1557 1557 1556 1555 1554 1553
1514 1516 1519 1521 1524 1526 1528 1531 1533 1535 1538 1540 1543 1545 1546 1548 1550 1551 1552 1554 1555 1556 1557 1557 1558 1558 1558 1558 1558 1558 1558 1558 1558 1558 1557 1557 1557 1556 1556 1555 1554 1553 1552
1516 1518 1521 1523 1526 1528 1531 1533 1535 1537 1540 1542 1544 1545 1547 1549 1550 1552 1553 1554 1555 1556 1557 1557 1557 1558 1558 1557 1557 1558 1557 1557 1557 1556 1556 1556 1556 1555 1554 1553 1552 1551 1550
1519 1521 1523 1526 1528 1530 1533 1534 1536 1539 1541 1543 1544 1546 1548 1549 1551 1552 1553 1555 1555 1556 1556 1557 1557 1557 1557 1557 1557 1556 1556 1556 1555 1555 1555 1554 1554 1553 1552 1551 1550 1549 1548
1522 1524 1526 1528 1530 1532 1534 1536 1538 1540 1541 1543 1545 1547 1548 1549 1551 1552 1553 1554 1555 1555 1556 1556 1556 1556 1556 1556 1555 1555 1555 1554 1554 1553 1553 1552 1551 1551 1550 1549 1548 1546 1545
1525 1527 1529 1530 1532 1534 1536 1537 1539 1540 1542 1543 1545 1546 1548 1549 1550 1551 1552 1553 1553 1554 1554 1554 1555 1555 1554 1554 1554 1554 1553 1553 1552 1551 1550 1550 1549 1548 1547 1546 1544 1543 1542